Showing default

CBERS 4A, 44883

Orbit data source: Space-Track

CBERS 4A, 44883 is a CN and BR payload satellite in SSO that was launched on Fri, 20 Dec 2019 UTC via a CHANG ZHENG 4B launch vehicle from the Taiyaun Space Center, China (TSC). Payloads include a variety of satellites, spacecraft, and rockets equipped with specific instruments for various scientific and technological missions. These include communications satellites like Starlink; space stations such as the ISS; scientific satellites like the Hubble; Earth observation satellites from companies like Planet Labs, Umbra, and HawkEye 360; GPS; miniature CubeSats for education and research; and military/defense satellites.

Loading next visibility...
CBERS 4A details
Identifier
44883, 2019-093E
Orbit
SSO
Last TLE update10 hours ago
Origin
Flag of CNZZWYZ/INPE (CN / CHBZ)
Flag of BRZZWYZ/INPE (BR / CHBZ)
ManufacturerCAST/INPE
MissionOperational Civil Imaging
Bus & MotorZY, AOCS 20N
Mass1,980 kg wet, ~1,900 kg dry
Launch date (UTC)
2019-12-20 (5 years ago)
Launch vehicle
CHANG ZHENG 4B
Launch site
Taiyaun Space Center, China (TSC)
Object type
Payload
Rocket body
Debris
Shape & HBRBox + 1 Pan, Unknown HBR
Radar Cross Section22.196 m², Large (>1 m²)

Expand to show TLE details & history

TLE from 10 hours ago
0 CBERS 4A
1 44883U 19093E   24361.50845417  .00003293  00000-0  42524-3 0  9996
2 44883  97.8138  73.0465 0003353 103.2389 256.9198 14.81625154271467
Epoch: 2024-12-26T12:12Z
Definitive object data (Epoch: 2024-12-26T12:12:10.44Z)
Latitude-0.00003°
Longitude154.51616°
Altitude627.757 km
Speed7.544 km/s
True Right ascension04h 52m 11s
True Declination0° 00' 00"
Sunlit
Object was in full shadow at TLE epoch
Visualization TLE readout
Latitude-37.0559°
Longitude160.81987°
Altitude640.08 km
Speed7.536 km/s
Apparent Right ascension07h 04m 29s
Apparent Declination-41° 58' 22"
Sunlit
Object is in full shadow
Visualization observer readout
Local Sidereal Time21:08:38
Azimuth105.206° ESE
Elevation-66.595°
Doppler factor1
Orbital elements
Apogee altitude623.581 km
Perigee altitude618.887 km
Semi-major axis6,999.371 km
Eccentricity0.0003353
Inclination97.8138°
RAAN73.0465°
Arg. of periapsis103.2389°
True anomaly256.88238°
Mean anomaly256.9198°
Eccentric anomaly256.90109°
Mean motion3.70642 °/min
BSTAR0.00042524
Orbital period97.13 mins
Loading maneuver chart data...
Loading historical data...
Loading historical data...
Loading historical data...
Loading historical data...
Loading historical data...
Loading historical data...
Loading historical data...

CBERS 4A Visibility forecast

Observer location: undefined°, undefined

Span
Click to sort rows by Start time (UTC) header in descending order
Start Az.
Max El. time (UTC)
Max El. Az.
Max El.
End time (UTC)
End Az.
7 mins2024-12-27 04:32:35.465Z139.193° SSE2024-12-27 04:35:35.465Z85.88° E33.531°2024-12-27 04:39:35.465Z3.787° NNE
7 mins2024-12-27 17:57:35.465Z9.646° NNE2024-12-27 18:00:35.465Z223.692° SW44.151°2024-12-27 18:04:35.465Z196.42° SSW
|